Regional Weather Roundup
Issued by NWS

Home | Current Version | Previous Version | Graphics & Text | Print | Product List | Glossary On
Versions: 1 2 3 4 5 6 7 8 9 10 11 12 13 14 15 16 17 18 19 20 21 22 23 24 25 26 27 28 29 30 31 32 33 34 35 36 37 38 39 40 41 42 43 44 45 46 47 48 49 50
000
ASUS43 KLOT 221609
RWRIL

ILLINOIS REGIONAL WEATHER ROUNDUP
NATIONAL WEATHER SERVICE CHICAGO/ROMEOVILLE IL
1100 AM CDT TUE AUG 22 2017

NOTE: "FAIR" INDICATES FEW OR NO CLOUDS BELOW 12,000 FEET WITH NO
SIGNIFICANT WEATHER AND/OR OBSTRUCTIONS TO VISIBILITY.

* THESE STATIONS ARE NOT UNDER NWS QUALITY CONTROL. THEY ALSO MAY NOT
  REPORT WEATHER SUCH AS PRECIPITATION OR FOG.

ILZ001-002-007-009-015-016-024-221700-
NORTHWEST ILLINOIS

CITY           SKY/WX    TMP DP  RH WIND       PRES   REMARKS
MOLINE         CLOUDY    70  62  76 NW15      29.98R
STERLING*      CLOUDY    69  63  81 NW12      29.96R
SAVANNA*       PTSUNNY   72  61  68 NW13G20   29.96R
$$

ILZ003-004-008-010-011-017-018-221700-
NORTH CENTRAL ILLINOIS

CITY           SKY/WX    TMP DP  RH WIND       PRES   REMARKS
ROCKFORD       PTSUNNY   73  62  68 NW14      29.93S
FREEPORT*      PTSUNNY   71  60  67 NW14G21   29.96R
ROCHELLE*      CLOUDY    69  62  80 W10G16    29.94R
DE KALB*       CLOUDY    70  64  82 NW15G21   29.92S
PERU*          CLOUDY    69  64  83 NW12      29.95R
$$

ILZ005-006-012>014-019>023-221700-
NORTHEAST ILLINOIS

CITY           SKY/WX    TMP DP  RH WIND       PRES   REMARKS
CHICAGO-OHARE  CLOUDY    73  62  68 W18       29.88R
CHICAGO-MIDWAY CLOUDY    74  64  71 W17       29.88R
AURORA         CLOUDY    72  66  81 W14       29.91R
LANSING*       CLOUDY    74  65  71 W15G21    29.88S
JOLIET*        CLOUDY    73  67  81 W6G16     29.91R
WAUKEGAN       CLOUDY    72  63  73 W10G21    29.86S
DUPAGE AIRPORT CLOUDY    71  65  81 W14       29.89R
KANKAKEE*      CLOUDY    73  70  90 W16       29.92R
WHEELING       CLOUDY    72  64  76 NW14G20   29.89R
MORRIS*        CLOUDY    71  66  85 W13       29.91R
ROMEOVILLE*    CLOUDY    71  63  77 NW10G20   29.91R
NORTHERLY ISL    N/A     74  63  68 W10         N/A
$$

LMZ740>746-221700-
SOUTHERN LAKE MICHIGAN

STATION/POSITION SKY/WX   TEMP    WIND        PRES    VSBY  WAVE
                          AIR SEA DIR/SP/G                  HT/PER
                          (F)     (DEG/KT/KT) (MB)    (MI)  (FT/S)
SOUTHERN BUOY              70 71  300/ 19/ 23 1009.8          4/ 4
WILMETTE HARBOR            72 73  290/ 16/ 23   N/A           2/ 3
HARRISON CRIB              74     280/ 14/ 16   N/A
CALUMET HARBOR             75     270/  5/ 12 1010.9S
BURNS HARBOR               73     260/ 15/ 19 1011.9S
MICHIGAN CITY              72     240/ 21/ 23   N/A
MICHIGAN CITY 6N           72 74  270/ 14/ 19   N/A           4/ 4
ST. JOSEPH                 72 73  280/ 16/ 19 1010.9          5/ 5
$$

ILZ025>027-034>036-040-047-049-050-058-095>099-221700-
WEST-CENTRAL ILLINOIS

CITY           SKY/WX    TMP DP  RH WIND       PRES   REMARKS
QUINCY         PTSUNNY   74  66  76 NW13      30.02R
GALESBURG*     PTSUNNY   72  64  76 NW15G22   30.00R
MACOMB*        MOSUNNY   73  66  78 NW13      30.01S
JACKSONVILLE*  CLOUDY    73  66  81 W8        30.01R
PITTSFIELD*    CLOUDY    74  68  80 W12       30.03S
$$

ILZ028>032-037-038-041>044-048-051>054-059>061-221700-
CENTRAL ILLINOIS

CITY           SKY/WX    TMP DP  RH WIND       PRES   REMARKS
PONTIAC        CLOUDY    73  70  90 W15       29.94R
BLOOMINGTON    PTSUNNY   72  67  84 W10       29.97R
DECATUR        CLOUDY    73  68  84 W9        29.98R
PEORIA         PTSUNNY   74  67  78 NW10G20   29.96R
LACON*         CLOUDY    71  66  83 NW12      29.95R
LINCOLN*       CLOUDY    73  69  85 W5        29.97S
SPRINGFIELD    CLOUDY    75  70  84 W7        29.99R
TAYLORVILLE    CLOUDY    73  69  86 W7        29.99S
$$

ILZ033-039-045-046-055>057-062-063-221700-
EAST-CENTRAL ILLINOIS

CITY           SKY/WX    TMP DP  RH WIND       PRES   REMARKS
CHAMPAIGN      PTSUNNY   73  67  81 W13       29.96R
RANTOUL*       CLOUDY    74  69  85 W12G18    29.95R
MATTOON        LGT RAIN  73  70  90 W9        29.97R
PARIS*         CLOUDY    74  69  86 W14       29.97R
$$

ILZ079-100>102-221700-
SOUTHWEST ILLINOIS

CITY           SKY/WX    TMP DP  RH WIND       PRES   REMARKS
ALTON          CLOUDY    72  72 100 W7        30.01R
BELLEVILLE     CLOUDY    73  71  92 NW8       30.01R
CAHOKIA*       CLOUDY    75  71  87 W3        30.00R
SPARTA*        LGT RAIN  73  71  92 CALM      29.98F
$$

ILZ064>066-069>071-074>076-080>082-084>086-088>090-092>094-221700-
SOUTH-CENTRAL ILLINOIS

CITY           SKY/WX    TMP DP  RH WIND       PRES   REMARKS
CARBONDALE     CLOUDY    81  76  84 SW8       29.97F HX  87
CAIRO*         CLOUDY    83  76  79 SW8       30.00S HX  91
EFFINGHAM*     LGT RAIN  73  73 100 S7        30.00S
MARION         PTSUNNY   82  79  89 W7        29.98F HX  93
MT. VERNON     LGT RAIN  76  72  87 CALM      29.99R
CENTRALIA*     CLOUDY    76  73  88 NW5       29.99R
SALEM*         CLOUDY    76  71  85 S3        29.99R
METROPOLIS*    PTSUNNY   86  76  72 SW9G16    30.01S HX  96
$$

ILZ067-068-072-073-078-083-087-091-221700-
SOUTHEAST ILLINOIS

CITY           SKY/WX    TMP DP  RH WIND       PRES   REMARKS
LAWRENCEVILLE  CLOUDY    75  72  90 S6        29.98R
FLORA*         CLOUDY    75  72  88 CALM      30.00R
FAIRFIELD*     CLOUDY    74  72  92 CALM      29.97R
HARRISBURG*    CLOUDY    82  76  81 W6        29.98F HX  89
ROBINSON*      CLOUDY    74  70  87 CALM      29.99R
CARMI*         CLOUDY    76  73  88 SE3       29.97F
$$

ABBREVIATIONS USED IN REMARKS
   TC - TEMPERATURE IN CELSIUS
  WCI - WIND CHILL INDEX
   HX - HEAT INDEX
  VSB - VISIBILITY
$$





USA.gov is the U.S. government's official web portal to all federal, state and local government web resources and services.